Location: Cypress Hills
(40.6770°N, 73.8913°W)
Time: 20:58:30
(UTC+00:00)

Daily predictions for brighter satellites

Satellite Brightness Start Highest point End
(mag) Time Altitude Azimuth Time Altitude Azimuth Time Altitude Azimuth
Cosmos 1953 Rocket 4.1 22:26:59 10° NNW 22:31:18 64° W 22:35:33 10° S
USA 215 4.0 22:25:54 10° SSE 22:32:19 57° SW 22:38:46 10° NW
Cosmos 1726 2.2 22:29:16 10° S 22:32:55 81° W 22:36:34 10° N
Okean-O 2.6 22:37:50 10° SSE 22:42:15 83° ENE 22:46:43 10° NNW
Cosmos 2082 Rocket 2.6 22:37:11 10° N 22:42:35 41° ENE 22:47:54 10° SE
Delta 2 Rocket 4.1 22:40:05 10° WSW 22:43:33 35° S 22:46:45 10° ESE
Cosmos 839 Rocket 4.5 22:39:46 10° NW 22:46:04 76° WSW 22:53:30 10° SSE
Cosmos 1703 3.3 22:42:17 10° N 22:46:14 88° W 22:50:07 10° S
BREEZE-M DEB (TANK) 4.1 22:43:53 10° NW 22:48:18 53° NNE 23:00:59 10° ESE
Cosmos 1908 3.6 22:50:44 10° SSW 22:54:36 69° W 22:58:29 10° N
Shenzhou-11 Module 2.9 22:52:42 10° W 22:55:19 39° SSW 22:57:56 10° SE
Cosmos 1339 Rocket 4.4 22:51:11 10° S 22:57:16 82° E 23:03:28 10° N
BREEZE-M DEB (TANK) 3.0 22:51:33 10° WSW 22:57:30 68° NNW 22:59:40 14° NE
YAOGAN 6 2.8 22:55:00 10° SSE 22:58:30 48° ENE 23:02:00 10° N
USA 238 DEB 3.8 22:51:50 10° SW 22:58:31 83° NW 23:05:27 10° NNE
Cosmos 1812 Rocket 3.7 22:54:16 10° S 22:58:33 52° E 23:02:54 10° NNE
USA 238 3.8 22:51:56 10° SW 22:58:37 83° WNW 23:05:32 10° NNE
Unknown 3.0 23:00:16 10° NW 23:03:40 70° NE 23:06:14 16° ESE
Ariane Rocket 3.9 23:03:24 10° ESE 23:07:35 27° ENE 23:11:48 10° N
Cosmos 468 Rocket 4.5 23:04:21 10° SSE 23:09:10 37° ESE 23:13:58 10° NE
YAOGAN 1 2.6 23:05:41 10° SSE 23:09:53 53° ENE 23:14:07 10° N
CZ-4 R/B 1.4 23:08:29 10° SSE 23:12:40 77° ENE 23:16:55 10° N
SKYMED 2 3.7 23:09:37 10° N 23:13:59 79° WNW 23:18:19 10° SSW
Meteor 2-1 Rocket 4.5 23:10:45 10° SSE 23:15:55 43° E 23:21:10 10° NNE
ASTEX 1 4.0 23:11:11 10° N 23:16:05 60° W 23:20:59 10° SSW
Cosmos 1605 Rocket 4.2 23:10:10 10° N 23:16:19 75° W 23:22:22 10° S
Lacrosse 5 1.8 23:13:57 10° NW 23:19:01 88° NE 23:23:34 13° SE
NOSS 3-2 (A) 3.7 23:14:38 10° SW 23:20:18 68° NW 23:26:44 10° NNE
Cosmos 2278 Rocket 3.6 23:15:01 10° SW 23:20:19 39° WNW 23:25:38 10° N
FALCON 9 DEB 3.0 23:17:28 10° NW 23:20:57 85° NE 23:22:41 28° SE
Cosmos 1461 3.9 23:18:03 10° NW 23:22:02 47° WSW 23:26:09 10° S
Cosmos 1937 Rocket 4.3 23:20:28 10° N 23:24:54 28° ENE 23:25:52 27° E
CSL-04 Rocket 3.6 23:19:32 10° SSE 23:25:03 80° ENE 23:30:33 10° NNW
BREEZE-M DEB (TANK) 3.5 23:12:55 10° WSW 23:25:48 76° NNW 23:28:17 23° NE
Cosmos 2297 3.6 23:20:59 10° SSW 23:26:39 76° ESE 23:32:24 10° NNE
Cosmos 1727 Rocket 4.0 23:21:39 10° S 23:27:49 84° W 23:34:01 10° N
USA 116 3.4 23:24:37 10° NNE 23:27:59 85° WNW 23:31:43 10° SSW
Cosmos-2242 3.4 23:24:51 10° SSE 23:28:52 38° E 23:32:54 10° NNE
Abrixas rocket 4.0 23:29:11 10° NW 23:31:27 19° N 23:31:56 18° NNE
Cosmos 2173 Rocket 4.0 23:26:13 10° N 23:32:18 54° E 23:38:17 10° SSE
Cosmos 1570 Rocket 4.3 23:27:38 10° S 23:32:38 43° ESE 23:36:41 15° NE
Falcon 9 debris 3.4 23:29:32 10° WNW 23:32:58 64° SW 23:34:22 32° SSE
ADEOS Rocket 4.4 23:29:24 10° NE 23:40:21 12° SE 23:40:54 10° SE
Cosmos 44 3.5 23:31:23 10° SW 23:36:20 68° WNW 23:40:37 13° NNE
Cosmos 1300 3.1 23:36:14 10° SSW 23:40:01 62° W 23:43:48 10° N
Cosmos 2084 Rocket 3.5 23:36:26 10° NW 23:40:52 79° SW 23:43:25 24° SSE
Unknown 3.2 23:37:23 10° NW 23:40:53 76° SW 23:41:38 52° SSE
Gbstr 26 Del rocket 4.5 23:35:36 10° WNW 23:41:45 64° SW 23:48:14 14° SE
Cosmos 1763 Rocket 3.5 23:38:09 10° S 23:43:21 60° ESE 23:47:54 14° NNE
Cosmos 2123 Rocket 4.3 23:38:12 10° SSE 23:44:00 41° E 23:49:48 10° NNE
Cosmos 1802 Rocket 4.0 23:41:12 10° N 23:47:33 60° E 23:53:48 10° SSE
NOSS 3-2 (C) 3.6 23:41:54 10° SW 23:47:35 68° NW 23:54:03 10° NNE
NOAA 11 4.0 23:42:37 10° SSE 23:48:02 77° ENE 23:53:29 10° N
SJ 16-02 2.1 23:44:19 10° N 23:47:34 36° NE 23:47:34 36° NE
Cosmos 1000 Rocket 4.4 23:43:17 10° S 23:49:28 77° E 23:55:44 10° N
Cosmos 2208 Rocket 4.0 23:45:19 10° S 23:50:20 51° ESE 23:51:36 42° ENE
Cosmos 1833 Rocket 4.2 23:45:32 10° NW 23:50:39 37° WSW 23:55:45 10° S
CZ-2D R/B 3.3 23:53:02 20° S 23:55:37 77° W 23:59:30 10° NNW
